Westerly, RI

2:28 PM EDT on August 23, 2017 (GMT -0400)
Westerly State

Weather History for KWST - May, 2014

Change the Weather History Date:

Saturday, May 17, 2014

  Actual Average (KGON) Record (KGON)
Temperature  
Mean Temperature 62 °F -  
Max Temperature 70 °F 68 °F 87 °F (1974)
Min Temperature 54 °F 48 °F 35 °F (1959)
Degree Days  
Heating Degree Days 3    
Growing Degree Days 12 (Base 50)    
Moisture  
Dew Point 54 °F    
Average Humidity 84    
Maximum Humidity 100    
Minimum Humidity 40    
Precipitation  
Precipitation 0.54 in - - ()
Sea Level Pressure  
Sea Level Pressure 29.94 in    
Wind  
Wind Speed 11 mph (SW)    
Max Wind Speed 17 mph    
Max Gust Speed 29 mph    
Visibility 6 miles    
Events Fog , Rain    
Averages and records for this station are not official NWS values.
T = Trace of Precipitation, MM = Missing Value Source: NWS Daily Summary

Daily Weather History Graph

Daily Weather History Graph

Search for Another Location

Airport or City:

Trip Planner

Search our weather history database for the weather conditions in past years. The results will help you decide how hot, cold, wet, or windy it might be!

Date:

Astronomy

May. 17, 2014 Rise Set
Actual Time 5:26 AM EDT 8:01 PM EDT
Civil Twilight 4:54 AM EDT 8:32 PM EDT
Nautical Twilight 4:15 AM EDT 9:12 PM EDT
Astronomical Twilight 3:30 AM EDT 9:57 PM EDT
Moon 10:58 PM EDT (5/17) 8:06 AM EDT (5/17)
Length of Visible Light 15h 38m
Length of Day
14h 34m
Waning Gibbous, 89% of the Moon is Illuminated
May 17
Waning Gibbous
May 21
Last Quarter
May 28
New
Jun 5
First Quarter
Jun 13
Full

Hourly Weather History & Observations

Time (EDT) Temp. Dew Point Humidity Pressure Visibility Wind Dir Wind Speed Gust Speed Precip Events Conditions
12:11 AM 59.0 °F 57.9 °F 96% 29.95 in 1.0 mi SE 13.8 mph 23.0 mph N/A   Mist
12:53 AM 59.0 °F 59.0 °F 100% 29.93 in 1.8 mi SE 15.0 mph 24.2 mph N/A   Overcast
1:31 AM 59.0 °F 57.9 °F 96% 29.91 in 0.8 mi SSE 17.3 mph 28.8 mph N/A   Mist
1:53 AM 59.0 °F 57.9 °F 96% 29.90 in 0.5 mi SE 15.0 mph 24.2 mph N/A Fog Fog
2:53 AM 59.0 °F 57.9 °F 96% 29.87 in 0.5 mi SSE 16.1 mph 24.2 mph N/A Fog Fog
3:53 AM 59.0 °F 57.9 °F 96% 29.85 in 0.5 mi SSE 16.1 mph 24.2 mph N/A Fog Fog
4:31 AM 57.9 °F 57.9 °F 100% 29.85 in 1.0 mi SSE 13.8 mph 24.2 mph 0.04 in Rain Light Rain
4:41 AM 57.9 °F 57.0 °F 97% 29.87 in 2.5 mi SSW 16.1 mph 28.8 mph 0.09 in Rain Rain
4:49 AM 57.2 °F 57.2 °F 100% 29.87 in 3.0 mi SSW 12.7 mph 24.2 mph 0.14 in Rain Rain
4:53 AM 57.9 °F 57.9 °F 100% 29.87 in 3.0 mi SSW 10.4 mph - 0.16 in Rain Rain
5:07 AM 60.1 °F 59.0 °F 96% 29.87 in 2.5 mi WSW 10.4 mph - 0.06 in Rain Rain
5:18 AM 59.0 °F 57.9 °F 96% 29.89 in 4.0 mi SW 9.2 mph 18.4 mph 0.10 in Rain Rain
5:51 AM 57.2 °F 57.2 °F 100% 29.90 in 3.0 mi WSW 6.9 mph - 0.26 in Rain Rain
5:53 AM 57.9 °F 57.0 °F 97% 29.90 in 3.0 mi WSW 5.8 mph - 0.27 in Rain Rain
6:14 AM 57.9 °F 57.0 °F 97% 29.90 in 1.8 mi Calm Calm - 0.09 in Rain Heavy Rain
6:25 AM 57.9 °F 57.0 °F 97% 29.89 in 3.0 mi Calm Calm - 0.11 in Rain Light Rain
6:48 AM 57.2 °F 57.2 °F 100% 29.91 in 10.0 mi SW 4.6 mph - 0.11 in   Overcast
6:53 AM 57.9 °F 57.0 °F 97% 29.91 in 10.0 mi SW 5.8 mph - 0.11 in   Overcast
7:16 AM 57.0 °F 55.9 °F 96% 29.91 in 1.8 mi SW 6.9 mph - N/A   Overcast
7:25 AM 57.0 °F 55.9 °F 96% 29.92 in 0.5 mi WSW 9.2 mph - N/A Fog Fog
7:35 AM 55.9 °F 55.0 °F 97% 29.92 in 2.0 mi WSW 8.1 mph - N/A   Overcast
7:42 AM 55.9 °F 55.0 °F 97% 29.92 in 10.0 mi SW 6.9 mph - N/A   Mostly Cloudy
7:53 AM 55.9 °F 55.0 °F 97% 29.93 in 10.0 mi WSW 6.9 mph - N/A   Scattered Clouds
8:53 AM 55.0 °F 53.1 °F 93% 29.95 in 10.0 mi WSW 6.9 mph - N/A   Scattered Clouds
9:01 AM 55.9 °F 53.1 °F 90% 29.95 in 10.0 mi SW 10.4 mph - N/A   Mostly Cloudy
9:18 AM 57.0 °F 54.0 °F 89% 29.96 in 10.0 mi WSW 8.1 mph - N/A   Overcast
9:53 AM 60.1 °F 55.0 °F 83% 29.96 in 10.0 mi SW 5.8 mph - N/A   Mostly Cloudy
10:00 AM 61.0 °F 55.0 °F 81% 29.96 in 10.0 mi SSW 5.8 mph - N/A   Scattered Clouds
10:53 AM 64.9 °F 55.9 °F 73% 29.96 in 10.0 mi West 6.9 mph - N/A   Clear
11:53 AM 64.9 °F 51.1 °F 61% 29.97 in 10.0 mi SW 12.7 mph - N/A   Clear
12:53 PM 62.1 °F 50.0 °F 65% 29.98 in 10.0 mi WSW 15.0 mph 23.0 mph N/A   Clear
1:53 PM 62.1 °F 48.9 °F 62% 29.99 in 10.0 mi WSW 11.5 mph 23.0 mph N/A   Clear
2:53 PM 64.0 °F 48.0 °F 56% 30.00 in 10.0 mi SW 15.0 mph 20.7 mph N/A   Clear
3:53 PM 69.1 °F 44.1 °F 40% 29.99 in 10.0 mi WSW 16.1 mph 24.2 mph N/A   Clear
4:53 PM 69.1 °F 45.0 °F 42% 29.99 in 10.0 mi WSW 12.7 mph 24.2 mph N/A   Clear
5:53 PM 64.9 °F 43.0 °F 45% 29.99 in 10.0 mi SW 10.4 mph 19.6 mph N/A   Clear
6:53 PM 64.0 °F 45.0 °F 50% 30.01 in 10.0 mi SW 6.9 mph - N/A   Clear
7:53 PM 62.1 °F 45.0 °F 53% 30.02 in 10.0 mi WSW 8.1 mph - N/A   Clear
8:53 PM 59.0 °F 46.0 °F 62% 30.04 in 10.0 mi WSW 3.5 mph - N/A   Clear
9:53 PM 55.9 °F 48.0 °F 75% 30.06 in 10.0 mi WSW 3.5 mph - N/A   Clear
10:53 PM 55.9 °F 48.0 °F 75% 30.07 in 10.0 mi WSW 4.6 mph - N/A   Clear
11:53 PM 54.0 °F 45.0 °F 72% 30.08 in 10.0 mi North 4.6 mph - N/A   Clear